OSCAR 7 (AO-7) 1 07530U 74089B 26127.92535750 -.00000045 00000+0 93828-5 0 9991 2 07530 101.9921 140.7498 0012082 206.3644 217.1570 12.53697409355474 PHASE 3B (AO-10) 1 14129U 83058B 26127.57973257 .00000056 00000+0 00000+0 0 9993 2 14129 25.8943 226.3219 6025143 104.4774 325.9368 2.05869554294659 UOSAT 2 (UO-11) 1 14781U 84021B 26128.21635255 .00000952 00000+0 10274-3 0 9996 2 14781 97.8034 94.2479 0006656 326.9018 33.1783 14.90689176251173 LUSAT (LO-19) 1 20442U 90005G 26127.99503646 .00000099 00000+0 52023-4 0 9999 2 20442 98.8875 148.6886 0010946 329.1427 30.9112 14.34110531896639 EYESAT A (AO-27) 1 22825U 93061C 26128.14308845 .00000080 00000+0 47497-4 0 9992 2 22825 98.6894 195.5670 0007788 211.1234 148.9488 14.30931314701270 ITAMSAT (IO-26) 1 22826U 93061D 26128.13442138 .00000076 00000+0 45605-4 0 9990 2 22826 98.6841 195.4719 0008616 194.0168 166.0777 14.31357094701586 RADIO ROSTO (RS15) 1 23439U 94085A 26128.20589491 -.00000046 00000+0 -10622-3 0 9999 2 23439 64.8198 7.8785 0154830 11.1778 349.2523 11.27583730291399 JAS-2 (FO-29) 1 24278U 96046B 26128.16368998 -.00000047 00000+0 -11083-4 0 9996 2 24278 98.5284 342.5084 0349489 200.1450 158.5605 13.53272349467754 TECHSAT 1B (GO-32) 1 25397U 98043D 26127.95552514 .00000051 00000+0 42131-4 0 9994 2 25397 99.0063 119.7021 0001263 23.0417 337.0817 14.24420434445601 ISS (ZARYA) 1 25544U 98067A 26128.19937109 .00004920 00000+0 96926-4 0 9998 2 25544 51.6308 138.0417 0007476 35.9089 324.2400 15.49139257565554 PCSAT (NO-44) 1 26931U 01043C 26128.06783464 .00000089 00000+0 64019-4 0 9996 2 26931 67.0518 348.0394 0006345 263.8408 96.1971 14.31940480284708 SAUDISAT 1C (SO-50) 1 27607U 02058C 26127.76209223 .00001084 00000+0 14510-3 0 9992 2 27607 64.5523 254.0492 0075633 269.8415 89.4024 14.82961176258461 CUTE-1 (CO-55) 1 27844U 03031E 26127.92520697 .00000248 00000+0 12641-3 0 9990 2 27844 98.6748 136.9893 0008523 307.2179 52.8222 14.24310603185947 CUBESAT XI-IV (CO-57) 1 27848U 03031J 26127.96380833 .00000212 00000+0 11227-3 0 9994 2 27848 98.6781 136.7725 0008727 327.5087 32.5553 14.23599109185658 MOZHAETS 4 (RS22) 1 27939U 03042A 26128.22361904 .00000644 00000+0 10755-3 0 9999 2 27939 98.3472 311.4556 0012153 40.4260 74.7706 14.73396555209660 CUBESAT XI-V 1 28895U 05043F 26127.90503021 .00001198 00000+0 19666-3 0 9991 2 28895 98.2942 282.6943 0013456 338.2970 21.7665 14.72526052 95828 CUTE-1.7+APD II (CO-65) 1 32785U 08021C 26128.13744650 .00003935 00000+0 25237-3 0 9996 2 32785 97.8270 108.7415 0009699 154.3462 205.8249 15.09077769979156 SEEDS II (CO-66) 1 32791U 08021J 26127.96672066 .00014111 00000+0 46763-3 0 9999 2 32791 97.7533 123.9918 0005127 94.3584 265.8242 15.31393250981132 YUBILEINY (RS30) 1 32953U 08025A 26128.18134037 .00000040 00000+0 21528-3 0 9997 2 32953 82.5072 20.3246 0020447 40.4933 319.7664 12.43178045814728 KKS-1 (KISEKI) 1 33499U 09002H 26128.11272126 .00001150 00000+0 14820-3 0 9994 2 33499 98.1192 49.9232 0009229 64.6550 295.5618 14.83020032930255 SWISSCUBE 1 35932U 09051B 26127.45914878 .00000928 00000+0 19328-3 0 9995 2 35932 98.4059 34.6360 0006610 351.7213 8.3878 14.62402512883208 BEESAT-1 1 35933U 09051C 26128.20058866 .00000708 00000+0 15218-3 0 9996 2 35933 98.3987 35.1089 0005397 7.0605 353.0671 14.61654554883349 ITUPSAT1 1 35935U 09051E 26128.15655274 .00000650 00000+0 14432-3 0 9991 2 35935 98.4072 34.2982 0007798 13.1791 346.9611 14.60379768882894 XIWANG-1 (HOPE-1) 1 36122U 09072B 26128.19234855 -.00000243 00000+0 -51888-3 0 9991 2 36122 100.4009 82.6692 0007291 330.3692 29.7007 13.16437552787743 O/OREOS (USA 219) 1 37224U 10062C 26128.21280847 .00001523 00000+0 15006-3 0 9993 2 37224 71.9690 170.8750 0013359 149.7054 210.4892 14.93580287110679 JUGNU 1 37839U 11058B 26127.58914622 .00000412 00000+0 75923-4 0 9996 2 37839 19.9596 195.0742 0018606 348.7369 160.6153 14.13764770753276 SRMSAT 1 37841U 11058D 26127.80052164 .00000405 00000+0 75810-4 0 9995 2 37841 19.9731 303.9251 0011766 119.4007 16.2660 14.11566674752108 STRAND-1 1 39090U 13009E 26127.95354010 .00000244 00000+0 96519-4 0 9992 2 39090 98.3917 309.1802 0008525 359.8980 0.2203 14.37139434691287 ZACUBE-1 (TSHEPISOSAT) 1 39417U 13066B 26128.14334387 .00004118 00000+0 32239-3 0 9997 2 39417 97.8127 90.2641 0042580 27.8491 332.4999 15.00878000674726 GOMX-1 1 39430U 13066Q 26128.14427036 .00001905 00000+0 29231-3 0 9995 2 39430 97.6509 331.1311 0128101 205.5511 153.9329 14.69306500664037 CUBEBUG-2 (LO-74) 1 39440U 13066AA 26127.79982951 .00003216 00000+0 30142-3 0 9998 2 39440 97.8885 76.6250 0058504 159.7468 200.6091 14.93467111670968 FUNCUBE-1 (AO-73) 1 39444U 13066AE 26127.87806580 .00006710 00000+0 42276-3 0 9997 2 39444 97.8252 98.5052 0036011 343.8124 16.1951 15.08962668673587 UWE-3 1 39446U 13066AG 26127.83928946 .00003305 00000+0 28719-3 0 9999 2 39446 97.8689 83.6609 0051263 93.9002 266.8082 14.96696960671548 UNISAT-6 1 40012U 14033C 26127.92352441 .00002734 00000+0 29838-3 0 9994 2 40012 97.7836 281.3624 0044856 199.5460 160.4039 14.88012851640175 DUCHIFAT-1 1 40021U 14033M 26128.07910564 .00066000 00000+0 88410-3 0 9994 2 40021 98.0511 181.8504 0005504 199.7493 160.3548 15.57761183649499 QB50P1 1 40025U 14033R 26128.00445167 .00006578 00000+0 33032-3 0 9997 2 40025 98.0990 136.3525 0008928 15.8962 344.2548 15.17642129646937 LILACSAT-2 1 40908U 15049K 26128.20082399 .00015048 00000+0 26846-3 0 9998 2 40908 97.4702 163.5537 0008091 51.9718 308.2262 15.50139594589558 FOX-1A (AO-85) 1 40967U 15058D 26128.17158804 .00002761 00000+0 25469-3 0 9992 2 40967 64.7767 43.3156 0128823 72.2769 289.2356 14.90733843107605 CAS-2T & KS-1Q 1 41847U 16066G 26128.20571262 .00000635 00000+0 99355-4 0 9995 2 41847 98.3826 204.3939 0340939 250.8119 105.5887 14.44585280499025 RADFXSAT (FOX-1B) 1 43017U 17073E 26128.17872094 .00008331 00000+0 36621-3 0 9995 2 43017 97.4759 356.2263 0154082 106.5780 255.2436 15.11990616459343 DIWATA-2B 1 43678U 18084H 26128.15447122 .00002121 00000+0 17448-3 0 9996 2 43678 98.1086 322.6503 0012326 309.4199 50.5931 15.00254096410215 ES'HAIL 2 1 43700U 18090A 26128.16781066 .00000152 00000+0 00000+0 0 9992 2 43700 0.0079 276.6893 0001666 161.0003 234.5410 1.00272653 27276 FOX-1CLIFF (AO-95) 1 43770U 18099N 26128.15027950 .00009048 00000+0 35571-3 0 9990 2 43770 97.4405 188.5667 0010327 125.4877 234.7326 15.25850289407115 ITASAT 1 43786U 18099AE 26128.09573003 .00005966 00000+0 29138-3 0 9992 2 43786 97.4056 180.4173 0014109 129.0483 231.2009 15.18541148406822 JY1SAT (JO-97) 1 43803U 18099AX 26128.14758206 .00013347 00000+0 42861-3 0 9998 2 43803 97.4155 190.8790 0006775 64.9539 295.2405 15.32399367407495 UWE-4 1 43880U 18111E 26127.73076591 .00023812 00000+0 52780-3 0 9991 2 43880 97.5857 54.3410 0010683 106.8348 253.4072 15.43699555404532 TIANYAN 01 1 44881U 19093C 26128.19468135 .00000126 00000+0 20253-4 0 9997 2 44881 97.7536 201.4009 0012618 213.7210 146.3204 14.86452886345479 RS-44 & BREEZE-KM R/B 1 44909U 19096E 26128.13259553 .00000012 00000+0 10517-4 0 9993 2 44909 82.5247 6.3247 0216530 237.9074 120.0844 12.79748134297224 SALSAT 1 46495U 20068K 26127.97572404 .00006277 00000+0 22401-3 0 9993 2 46495 97.8867 128.6133 0011667 85.6697 274.5875 15.29211046309215 XW-3 (CAS-9) 1 50466U 21131B 26128.20742141 .00000342 00000+0 11926-3 0 9999 2 50466 98.4954 220.8179 0003531 202.3118 157.7918 14.41318934229357 GREENCUBE (IO-117) 1 53109U 22080E 26127.87446985 -.00000003 00000+0 00000+0 0 9991 2 53109 70.1441 312.2716 0008862 299.1563 60.8210 6.42583336 89473 UMKA 1 (RS40S) 1 57172U 23091G 26128.14916580 .00004687 00000+0 21822-3 0 9992 2 57172 97.5073 187.0089 0011311 257.0032 102.9940 15.20367078157922 CUBESX-HSE 3 (RS42S) 1 57178U 23091N 26128.16565295 .00010636 00000+0 36578-3 0 9998 2 57178 97.5108 193.2755 0009997 227.3033 132.7366 15.30221589158307 MONITOR-3 (RS58S) 1 57180U 23091Q 26128.17021235 .00008409 00000+0 31915-3 0 9998 2 57180 97.5102 191.3435 0010672 235.3051 124.7183 15.27049310158189 MONITOR-4 (RS57S) 1 57182U 23091S 26128.15176199 .00008262 00000+0 31269-3 0 9997 2 57182 97.5096 191.2934 0010621 235.7522 124.2711 15.27146435158185 MONITOR-2 (RS39S) 1 57184U 23091U 26128.18729911 .00003766 00000+0 18553-3 0 9993 2 57184 97.5098 186.7343 0009773 248.2717 111.7477 15.18543149157882 SVYATOBOR 1 (RS60S) 1 57187U 23091X 26128.19750347 .00006983 00000+0 27467-3 0 9992 2 57187 97.5109 191.8105 0008515 225.2182 134.8364 15.25941350158218 VIZARD-METEO (RS38S) 1 57189U 23091Z 26128.19594035 .00013085 00000+0 39005-3 0 9996 2 57189 97.5104 196.9172 0007203 201.4415 158.6527 15.34774591158556 POLYTECH-UNIVERSE 3 (R*) 1 57191U 23091AB 26128.15383932 .00003904 00000+0 19087-3 0 9994 2 57191 97.5071 186.2062 0013955 268.0098 91.9538 15.18741368157872 UTMN 2 (RS27S) 1 57203U 23091AP 26128.20553550 .00009904 00000+0 33212-3 0 9991 2 57203 97.5103 194.9004 0007592 210.2328 149.8476 15.31082146158422 KUZGTU 1 (RS47S) 1 57217U 23091AV 26128.18807368 .00009581 00000+0 34282-3 0 9991 2 57217 97.5082 192.2858 0010057 231.3355 128.6985 15.28957754158269 SONATE-2 1 59112U 24043Q 26127.97564502 .00028274 00000+0 40824-3 0 9990 2 59112 97.5499 276.0110 0006202 352.7006 7.4156 15.55912947121637 MESAT1 1 60209U 24125G 26128.10599463 .00041422 00000+0 52669-3 0 9990 2 60209 97.2353 344.7912 0010033 15.2263 344.9294 15.59213523103313 OOV-CUBE (TUBSAT-30) 1 60240U 24128F 26128.06268964 .00001952 00000+0 15810-3 0 9993 2 60240 61.9965 5.4639 0049392 124.9287 235.6459 15.02572515100083 COLIBRI-S (RS67S) 1 61746U 24199M 26128.14793931 .00018013 00000+0 36892-3 0 9998 2 61746 97.3047 1.6779 0010532 71.9750 288.2646 15.46085123131226 HORS 3 (RS81S) 1 61753U 24199U 26128.15422471 .00029566 00000+0 48558-3 0 9992 2 61753 97.3034 3.2710 0008773 77.9227 282.3008 15.52323753131343 HORS 4 (RS82S) 1 61754U 24199V 26128.15935186 .00038549 00000+0 54964-3 0 9994 2 61754 97.2984 4.2473 0007910 75.0573 285.1557 15.56177590131417 HORIZON (RS59S) 1 61757U 24199Y 26128.11734240 .00400794 75250-4 60563-3 0 9992 2 61757 97.2780 10.6384 0004712 152.3213 207.8320 16.04593858131820 ARCTICSAT 1 (RS74S) 1 61762U 24199AD 26127.90976142 .00093663 00000+0 44246-3 0 9992 2 61762 97.2925 9.1126 0004103 93.3139 266.8600 15.82775608131702 SIT-2086 1 61764U 24199AF 26128.14847813 .00018519 00000+0 32527-3 0 9999 2 61764 97.3002 3.8761 0008498 62.3742 297.8371 15.50527425128223 HYPERVIEW 1G (RS66S) 1 61772U 24199AP 26128.18868958 .00085210 00000+0 78722-3 0 9994 2 61772 97.2948 6.1632 0008173 76.0800 284.1370 15.67260850128390 ALTAIR (RS65S) 1 61779U 24199AW 26128.19344317 .00007469 00000+0 21272-3 0 9998 2 61779 97.3080 357.8202 0014867 90.7072 269.5876 15.36281806130970 ASRTU-1 (AO-123) 1 61781U 24199AY 26128.14854362 .00006215 00000+0 18416-3 0 9996 2 61781 97.3051 357.1867 0015916 92.8488 267.4577 15.35092168127781 SAMSAT-IONOSPHERE (RS7*) 1 61784U 24199BB 26128.18280076 .00035619 00000+0 54335-3 0 9998 2 61784 97.3006 3.2236 0010990 76.1079 284.1397 15.54311743131348 RTU MIREA 1 (RS51S) 1 61785U 24199BC 26128.15701620 .00040932 00000+0 56454-3 0 9997 2 61785 97.2997 3.8479 0010846 74.6292 285.6161 15.57031835128235 TEVEL2-4 1 63213U 25052D 26128.19194579 .00014792 00000+0 46266-3 0 9992 2 63213 97.3941 24.5531 0000980 189.2943 170.8281 15.33237203 63985 TEVEL2-5 1 63214U 25052E 26128.20822558 .00014256 00000+0 44817-3 0 9995 2 63214 97.3937 24.5279 0000984 187.1965 172.9264 15.33083490 63986 TEVEL2-6 1 63215U 25052F 26128.15431446 .00014491 00000+0 45605-3 0 9999 2 63215 97.3941 24.4589 0001022 198.3270 161.7936 15.33044764 63974 TEVEL2-1 1 63217U 25052H 26128.17014073 .00013733 00000+0 43897-3 0 9995 2 63217 97.3912 24.1447 0000554 240.7189 119.3998 15.32559450 63962 TEVEL2-3 1 63218U 25052J 26128.16610823 .00013684 00000+0 43677-3 0 9991 2 63218 97.3916 24.1579 0000557 243.1609 116.9576 15.32606381 63961 TEVEL2-2 1 63219U 25052K 26128.17063859 .00013799 00000+0 44100-3 0 9993 2 63219 97.3916 24.1468 0000555 246.7091 113.4093 15.32565190 63969 TEVEL2-9 1 63237U 25052AD 26128.16329183 .00012227 00000+0 41434-3 0 9999 2 63237 97.3984 23.5971 0004168 290.2658 69.8135 15.30696763 63907 TEVEL2-7 1 63238U 25052AE 26128.19694976 .00012633 00000+0 43148-3 0 9993 2 63238 97.3978 23.5632 0004243 289.8880 70.1903 15.30433371 63902 TEVEL2-8 1 63239U 25052AF 26128.20475508 .00012409 00000+0 42413-3 0 9999 2 63239 97.3980 23.5492 0004211 290.9111 69.1679 15.30415146 63903 HADES-ICM 1 63492U 25052BN 26128.19489132 .00613396 14573-3 21997-2 0 9995 2 63492 97.3769 31.8853 0007091 159.6656 200.4900 15.88728250 64472 INNOSAT 16 (RS92S7) 1 64878U 25155C 26128.17910602 .00005048 00000+0 20484-3 0 9993 2 64878 97.4544 95.4558 0009518 337.1848 22.8966 15.25024038 74577 GEOSCAN 6 (RS92S6) 1 64879U 25155D 26128.14920139 .00008766 00000+0 30996-3 0 9996 2 64879 97.4539 96.5780 0006466 334.1732 25.9184 15.29397285 74644 GEOSCAN 1 (RS92S1) 1 64880U 25155E 26128.16636197 .00009260 00000+0 32196-3 0 9992 2 64880 97.4536 96.7104 0006348 334.3479 25.7446 15.29930345 74654 239ALFEROV (RS61S) 1 64881U 25155F 26128.18972691 .00012310 00000+0 40215-3 0 9998 2 64881 97.4538 97.1687 0005742 335.3851 24.7116 15.31875144 74684 GEOSCAN 2 (RS92S2) 1 64890U 25155Q 26128.16723547 .00008967 00000+0 30924-3 0 9999 2 64890 97.4535 96.8477 0005271 319.3761 40.7085 15.30214053 74669 GEOSCAN 5 (RS92S5) 1 64891U 25155R 26128.18707259 .00012253 00000+0 39635-3 0 9995 2 64891 97.4531 97.2883 0004975 346.8841 13.2271 15.32198736 74692 GEOSCAN 4 (RS92S4) 1 64892U 25155S 26128.17494972 .00012301 00000+0 39628-3 0 9996 2 64892 97.4534 97.3137 0005000 347.9313 12.1808 15.32328447 74693 GEOSCAN 3 (RS92S3) 1 64893U 25155T 26128.15871123 .00015318 00000+0 46663-3 0 9990 2 64893 97.4523 97.6198 0004684 351.3610 8.7551 15.34062766 74718 INNOSAT 3 (RS92S0) 1 64894U 25155U 26128.21828551 .00031052 00000+0 74978-3 0 9998 2 64894 97.4481 98.8522 0003431 6.7895 353.3397 15.41127886 74801 KNACKSAT-2 1 67683U 98067XZ 26128.20106998 .00032348 00000+0 44986-3 0 9997 2 67683 51.6282 135.0537 0012709 50.2194 309.9915 15.56588676 14042